Orbital Elements at Epoch 2459200.5 (2020-Dec-17.0) TDB
Reference: JPL 17 (heliocentric ecliptic J2000)
Element | Value | Uncertainty (1-sigma) | Units |
e | .1579993125220028 | 4.3848e-08 | |
a | 2.40629215889284 | 1.095e-08 | au |
q | 2.026099652060685 | 1.0867e-07 | au |
i | 5.527703136967541 | 4.7859e-06 | deg |
node | 59.16178417205782 | 4.9961e-05 | deg |
peri | 83.75785839946509 | 5.2245e-05 | deg |
M | 268.0583737125759 | 1.7157e-05 | deg |
tp | 2459548.701502928542 (2021-Nov-30.20150293) | 6.6105e-05 | TDB |
period | 1363.392688556576 3.73 | 9.3061e-06 2.548e-08 | d yr |
n | .2640471839269815 | 1.8023e-09 | deg/d |
Q | 2.786484665724994 | 1.268e-08 | au |
|
| | Orbit Determination Parameters
Additional Information
|